星链-11326 (STARLINK-11326)

导读

STARLINK-11326是美国SpaceX公司星链星座的成员,于2024年11月18日发射入轨,运行在近地轨道,属于星链全球卫星互联网组网的一部分。该卫星旨在为全球尤其是地面网络难以覆盖的偏远地区提供高速低延迟互联网接入,同时也可支持军事、应急通信等应用,不过星链大规模部署也引发了太空拥堵、天文观测干扰等争议。

Basic Information
目录编号:
62010
目录名称:
STARLINK-11326
国际标识:
2024-213C
轨道中心:
EARTH
卫星名称:
星链-11326
卫星全名:
星链-11326 (STARLINK-11326)
卫星状态:
在轨 (已飞行662 天)
发射日期:
2024-11-18 UTC
国别 :
美国 (US)
星等 :
--
This satellite is enrolled in the Space Conjunction Data Service (SCDS) and the current flight risk assessment level is: No High Risk
Orbit Information
数据来源 国际轨道数据
星历时间: 2026-09-10T21:55:54+0800
17小时前
查看轨道信息
半长轴: 6737.287km
偏心率: 0.0000949
轨道倾角: 53.157°
近地点辐角 290.036°
升交点赤经 209.868°
平近点角 70.056°
近地点: 358.51km
远地点: 359.79km
周期: 91.725分钟
每日圈数: 15.699118
Detailed Information
固有亮度:
5
最大亮度:
2.5
卫星平台:
Starlink V1.0
覆盖范围:
全球
运营商:
太空探索技术公司
运营商所在国:
美国
制造商(研发单位):
太空探索技术公司
制造商所在国:
美国
使用方式:
暂无
Satellite Introduction
Starlink 计划是 SpaceX 推出的全球卫星互联网项目,通过发射低轨道卫星,为全球尤其是偏远地区提供高速、低延迟的互联网服务。自 2019 年起,Starlink 已部署数千颗卫星,旨在缩小全球数字鸿沟,推动互联网普及。该项目还为军事、航空等行业提供通信支持,带来广泛经济效益。
2D Orbit Map
3D Orbit Map
Orbit Altitude Analysis Chart
Orbit Inclination Analysis Chart
Orbit Comprehensive Analysis Chart
View Comprehensive Chart
Conjunction Data List
Event ID Objects TCA Miss Dist (km) Collision Risk Probability Collision Risk Index (CRI) Action
CDM_260913-142206-006106-201021
2026-09-13T
14:22:54+0000
2.680 km
极远距离
1.376537E-6 低风险 0.38
CDM_260913-073704-575106-201021
2026-09-13T
07:37:16+0000
2.842 km
极远距离
1.290504E-6 低风险 0.37
CDM_260913-123006-188206-201021
2026-09-13T
12:30:58+0000
2.276 km
极远距离
1.073384E-6 低风险 0.36
Miss Distance Evolution Trend with All Objects
Collision Probability Evolution Trend with All Objects